FW2402 Weather Reports


time (UTC)temp
F
wind
direction
speed
knots
gust
knots
rain 1hr
in
rain 24hr
in
rain mn
in
humidity
%
barometer
mb
20260831180050 89 270 0.9 3.5 0.00 0.04 0.00 71 1016.0
20260831175524 88 140 0.9 6.1 0.00 0.04 0.00 74 1016.0
20260831175024 88 281 3.5 6.1 0.00 0.04 0.00 67 1016.1
20260831174546 89 226 0.9 7.0 0.00 0.04 0.00 68 1016.2
20260831174022 90 39 2.6 7.0 0.00 0.04 0.00 70 1016.3
20260831173521 89 261 0.9 3.5 0.00 0.04 0.00 71 1016.3
20260831173041 89 302 0.0 3.5 0.00 0.04 0.00 73 1016.4
20260831172525 90 0 0.9 3.5 0.00 0.04 0.00 67 1016.6
20260831172025 90 55 0.0 4.3 0.00 0.04 0.00 70 1016.5
20260831171552 89 300 0.9 4.3 0.00 0.04 0.00 67 1016.5
20260831171025 88 0 0.9 6.1 0.00 0.04 0.00 70 1016.7
20260831170524 87 274 1.7 6.1 0.00 0.04 0.00 72 1016.8
20260831170043 89 281 0.9 4.3 0.00 0.04 0.00 73 1016.9
20260831165523 88 53 1.7 5.2 0.00 0.04 0.00 73 1017.0
20260831165023 87 72 2.6 5.2 0.00 0.04 0.00 73 1017.1
20260831164555 87 69 0.0 3.5 0.00 0.04 0.00 79 1017.2
20260831164024 85 294 1.7 2.6 0.00 0.04 0.00 75 1017.2
20260831163526 85 0 0.0 2.6 0.00 0.04 0.00 75 1017.2
20260831163052 88 0 0.0 2.6 0.00 0.04 0.00 72 1017.2
20260831162525 88 0 0.0 2.6 0.00 0.04 0.00 79 1017.4
20260831162026 87 0 0.0 2.6 0.00 0.04 0.00 75 1017.4
20260831161545 86 0 0.0 3.5 0.00 0.04 0.00 76 1017.4
20260831161023 86 0 0.9 5.2 0.00 0.04 0.00 75 1017.4
20260831160527 87 0 0.9 6.1 0.00 0.04 0.00 76 1017.5
20260831160047 87 63 2.6 6.1 0.00 0.04 0.00 74 1017.5
20260831155525 87 61 0.0 6.1 0.00 0.04 0.00 76 1017.4
20260831155026 87 93 2.6 6.1 0.00 0.04 0.00 75 1017.4
20260831154608 86 84 0.9 6.1 0.00 0.04 0.00 78 1017.5
20260831154028 84 275 1.7 2.6 0.00 0.04 0.00 79 1017.5
20260831153525 84 255 0.0 3.5 0.00 0.04 0.00 81 1017.6
20260831153049 85 0 0.0 3.5 0.00 0.04 0.00 77 1017.6
20260831152523 87 46 1.7 3.5 0.00 0.04 0.00 77 1017.6
20260831152023 87 108 0.9 3.5 0.00 0.04 0.00 78 1017.5
20260831151548 86 63 1.7 4.3 0.00 0.04 0.00 77 1017.6
20260831151025 86 42 1.7 4.3 0.00 0.04 0.00 79 1017.6
20260831150526 86 24 0.9 3.5 0.00 0.04 0.00 77 1017.5
20260831150050 85 105 0.0 5.2 0.00 0.04 0.00 80 1017.4
20260831145526 85 54 1.7 5.2 0.00 0.04 0.00 79 1017.5
20260831145025 85 45 0.9 4.3 0.00 0.04 0.00 81 1017.4
20260831144559 84 190 0.9 4.3 0.00 0.04 0.00 79 1017.4
20260831144024 84 144 1.7 3.5 0.00 0.04 0.00 82 1017.3
20260831143524 84 284 0.0 4.3 0.00 0.04 0.00 80 1017.3
20260831143050 84 61 1.7 4.3 0.00 0.04 0.00 81 1017.3
20260831142524 84 26 0.9 3.5 0.00 0.04 0.00 84 1017.2
20260831142028 83 49 0.9 2.6 0.00 0.04 0.00 82 1017.1
20260831141555 83 122 0.9 1.7 0.00 0.04 0.00 84 1017.2
20260831141024 83 142 0.0 2.6 0.00 0.04 0.00 84 1017.2
20260831140528 83 0 0.0 2.6 0.00 0.04 0.00 85 1017.3
20260831140048 82 69 0.0 2.6 0.00 0.04 0.00 85 1017.2
20260831135525 82 321 0.0 1.7 0.00 0.04 0.00 86 1017.2
20260831135028 81 0 0.0 2.6 0.00 0.04 0.00 88 1017.2
20260831134545 81 136 0.0 2.6 0.00 0.04 0.00 89 1017.2
20260831134022 81 0 0.0 1.7 0.00 0.04 0.00 89 1017.1
20260831133527 81 0 0.0 2.6 0.00 0.04 0.00 90 1017.1
20260831133042 80 145 0.0 2.6 0.00 0.04 0.00 91 1017.1
20260831132522 80 151 0.9 2.6 0.00 0.04 0.00 92 1017.1
20260831132026 79 70 0.9 2.6 0.00 0.04 0.00 95 1017.1
20260831131540 79 84 0.9 1.7 0.00 0.04 0.00 96 1017.1
20260831131026 79 85 0.0 1.7 0.00 0.04 0.00 97 1017.2
20260831130524 78 0 0.0 2.6 0.00 0.04 0.00 97 1017.2
20260831130050 78 0 0.9 2.6 0.00 0.04 0.00 97 1017.3
20260831125523 78 286 0.0 2.6 0.00 0.04 0.00 97 1017.2
20260831125018 78 0 0.0 2.6 0.00 0.04 0.00 97 1017.1
20260831124540 77 45 0.0 1.7 0.00 0.04 0.00 97 1017.0
20260831124020 77 0 0.0 0.0 0.00 0.04 0.00 97 1017.0
20260831123524 77 0 0.0 0.0 0.00 0.04 0.00 97 1017.0
20260831123050 77 0 0.0 0.0 0.00 0.04 0.00 97 1016.8
20260831122525 76 0 0.0 0.0 0.00 0.04 0.00 97 1016.7
20260831122024 76 0 0.0 0.0 0.00 0.04 0.00 97 1016.7
20260831121544 75 0 0.0 0.0 0.00 0.04 0.00 97 1016.6
20260831121022 75 0 0.0 0.0 0.00 0.04 0.00 97 1016.6
20260831120525 75 0 0.0 0.0 0.00 0.04 0.00 97 1016.7
20260831120043 74 0 0.0 0.0 0.00 0.04 0.00 97 1016.6
20260831115519 74 0 0.0 0.0 0.00 0.04 0.00 97 1016.5
20260831115024 74 0 0.0 0.0 0.00 0.04 0.00 97 1016.4
20260831114550 73 0 0.0 0.0 0.00 0.04 0.00 97 1016.3
20260831114025 73 0 0.0 0.0 0.00 0.04 0.00 97 1016.3
20260831113527 73 0 0.0 0.0 0.00 0.04 0.00 97 1016.3
20260831113046 73 0 0.0 0.0 0.00 0.04 0.00 97 1016.3
20260831112524 73 0 0.0 0.0 0.00 0.04 0.00 97 1016.3
20260831112021 73 0 0.0 0.0 0.00 0.04 0.00 97 1016.2
20260831111552 72 0 0.0 0.0 0.00 0.04 0.00 97 1016.2
20260831111020 73 0 0.0 0.0 0.00 0.04 0.00 97 1016.1
20260831110521 73 0 0.0 0.0 0.00 0.04 0.00 97 1016.1
20260831110047 72 0 0.0 0.0 0.00 0.04 0.00 97 1016.0
20260831105525 73 0 0.0 0.0 0.00 0.04 0.00 97 1016.0
20260831105023 72 0 0.0 0.0 0.00 0.04 0.00 97 1016.0
20260831104555 72 0 0.0 0.0 0.00 0.04 0.00 97 1015.9
20260831104019 72 0 0.0 0.0 0.00 0.04 0.00 97 1015.9
20260831103521 72 0 0.0 0.0 0.00 0.04 0.00 97 1015.7
20260831103041 72 0 0.0 0.0 0.00 0.04 0.00 97 1015.7
20260831102524 72 0 0.0 0.0 0.00 0.04 0.00 97 1015.6
20260831102025 72 0 0.0 0.0 0.00 0.04 0.00 97 1015.6
20260831101548 72 0 0.0 0.0 0.00 0.04 0.00 97 1015.5
20260831101025 73 0 0.0 0.0 0.00 0.04 0.00 97 1015.4
20260831100526 72 0 0.0 0.0 0.00 0.04 0.00 97 1015.4
20260831100047 72 0 0.0 0.0 0.00 0.04 0.00 97 1015.4
20260831095523 73 0 0.0 0.0 0.00 0.04 0.00 97 1015.4
20260831095023 72 0 0.0 0.0 0.00 0.04 0.00 97 1015.3
20260831094541 72 0 0.0 0.0 0.00 0.04 0.00 97 1015.3
20260831094020 72 0 0.0 0.0 0.00 0.04 0.00 97 1015.4
20260831093520 72 0 0.0 0.0 0.00 0.04 0.00 97 1015.4
20260831093049 73 0 0.0 0.0 0.00 0.04 0.00 97 1015.4
20260831092524 73 0 0.0 0.0 0.00 0.04 0.00 97 1015.3
20260831092025 73 0 0.0 0.0 0.00 0.04 0.00 97 1015.4
20260831091541 73 0 0.0 0.0 0.00 0.04 0.00 97 1015.4
20260831091020 72 0 0.0 0.0 0.00 0.04 0.00 96 1015.4
20260831090523 73 0 0.0 0.0 0.00 0.04 0.00 97 1015.3
20260831090043 73 0 0.0 0.0 0.00 0.04 0.00 97 1015.2
20260831085521 72 0 0.0 0.0 0.00 0.04 0.00 96 1015.2
20260831085020 73 0 0.0 0.0 0.00 0.04 0.00 96 1015.2
20260831084542 73 0 0.0 0.0 0.00 0.04 0.00 97 1015.2
20260831084026 73 0 0.0 0.0 0.00 0.04 0.00 96 1015.3
20260831083526 73 0 0.0 0.0 0.00 0.04 0.00 96 1015.3
20260831083045 73 0 0.0 0.0 0.00 0.04 0.00 97 1015.3
20260831082523 73 0 0.0 0.0 0.00 0.04 0.00 96 1015.3
20260831082023 73 0 0.0 0.0 0.00 0.04 0.00 96 1015.2
20260831081541 73 0 0.0 0.0 0.00 0.04 0.00 97 1015.3
20260831081017 73 0 0.0 0.0 0.00 0.04 0.00 97 1015.3
20260831080521 73 0 0.0 0.0 0.00 0.04 0.00 97 1015.3
20260831080051 73 0 0.0 0.0 0.00 0.04 0.00 96 1015.3
20260831075525 73 0 0.0 0.0 0.00 0.04 0.00 96 1015.3
20260831075026 73 0 0.0 0.0 0.00 0.04 0.00 96 1015.3
20260831074550 73 0 0.0 0.0 0.00 0.04 0.00 96 1015.4
20260831074023 73 0 0.0 0.0 0.00 0.04 0.00 96 1015.3
20260831073524 73 0 0.0 0.0 0.00 0.04 0.00 96 1015.5
20260831073046 73 0 0.0 0.0 0.00 0.04 0.00 96 1015.5
20260831072526 73 0 0.0 0.0 0.00 0.04 0.00 96 1015.5
20260831072019 73 0 0.0 0.0 0.00 0.04 0.00 96 1015.6
20260831071542 73 0 0.0 0.0 0.00 0.04 0.00 96 1015.7
20260831071021 73 0 0.0 0.0 0.00 0.04 0.00 96 1015.6
20260831070524 73 0 0.0 0.0 0.00 0.04 0.00 96 1015.6
20260831070042 73 0 0.0 0.0 0.00 0.04 0.00 96 1015.7
20260831065536 73 0 0.0 0.0 0.00 0.04 0.00 96 1015.8
20260831065025 73 0 0.0 0.0 0.00 0.04 0.00 96 1015.7
20260831064545 73 0 0.0 0.0 0.00 0.04 0.00 96 1015.7
20260831064023 73 0 0.0 0.0 0.00 0.04 0.00 96 1015.8
20260831063523 73 0 0.0 0.0 0.00 0.04 0.00 96 1015.8
20260831063043 73 0 0.0 0.0 0.00 0.04 0.00 96 1016.0
20260831062523 73 0 0.0 0.0 0.00 0.04 0.00 96 1016.1
20260831062021 73 0 0.0 0.0 0.00 0.04 0.00 96 1016.2
20260831061543 73 0 0.0 0.0 0.00 0.04 0.00 96 1016.1
20260831061025 74 0 0.0 0.0 0.00 0.04 0.00 96 1016.1
20260831060525 74 0 0.0 0.0 0.00 0.04 0.00 96 1016.1
20260831060046 73 0 0.0 0.0 0.00 0.04 0.00 96 1016.2
20260831055524 73 0 0.0 0.0 0.00 0.04 0.00 96 1016.3
20260831055020 73 0 0.0 0.0 0.00 0.04 0.00 96 1016.4
20260831054543 74 0 0.0 0.0 0.00 0.04 0.00 96 1016.5
20260831054024 73 0 0.0 0.0 0.00 0.04 0.00 96 1016.5
20260831053524 73 0 0.0 0.0 0.00 0.04 0.00 96 1016.6
20260831053042 74 0 0.0 0.0 0.00 0.04 0.00 96 1016.5
20260831052525 74 0 0.0 0.0 0.00 0.04 0.00 96 1016.5
20260831052028 74 0 0.0 0.0 0.00 0.04 0.00 96 1016.6
20260831051544 74 0 0.0 0.0 0.00 0.04 0.00 96 1016.4
20260831051023 74 0 0.0 0.0 0.00 0.04 0.00 96 1016.5
20260831050524 74 0 0.0 0.0 0.00 0.04 0.00 96 1016.4
20260831050045 74 0 0.0 0.0 0.00 0.04 0.00 96 1016.5
20260831045523 74 0 0.0 0.0 0.00 0.04 0.00 96 1016.4
20260831045023 74 0 0.0 0.0 0.00 0.04 0.00 96 1016.5
20260831044602 74 0 0.0 0.0 0.00 0.04 0.00 96 1016.5
20260831044023 74 0 0.0 0.0 0.00 0.04 0.00 96 1016.5
20260831043518 74 0 0.0 0.0 0.00 0.04 0.00 96 1016.7
20260831043044 74 0 0.0 0.0 0.00 0.04 0.00 95 1016.7
20260831042525 74 0 0.0 0.0 0.00 0.04 0.00 95 1016.6
20260831042024 74 0 0.0 0.0 0.00 0.04 0.00 95 1016.7
20260831041556 74 0 0.0 0.0 0.00 0.04 0.00 95 1016.5
20260831041024 74 0 0.0 0.0 0.00 0.04 0.00 95 1016.5
20260831040523 74 0 0.0 0.0 0.00 0.04 0.00 95 1016.8
20260831040044 74 0 0.0 0.0 0.00 0.04 0.00 95 1016.8
20260831035520 74 0 0.0 0.0 0.00 0.04 0.04 95 1016.8
20260831035020 75 0 0.0 0.0 0.00 0.04 0.04 95 1016.7
20260831034541 75 0 0.0 0.0 0.00 0.04 0.04 95 1016.8
20260831034023 75 0 0.0 0.0 0.00 0.04 0.04 95 1016.7
20260831033525 75 0 0.0 0.0 0.00 0.04 0.04 95 1016.8
20260831033043 75 0 0.0 0.0 0.00 0.04 0.04 95 1016.8
20260831032523 75 0 0.0 0.0 0.00 0.04 0.04 95 1016.7
20260831032023 75 0 0.0 0.0 0.00 0.04 0.04 95 1016.9
20260831031541 75 0 0.0 0.0 0.00 0.04 0.04 95 1016.7
20260831031020 75 0 0.0 0.0 0.00 0.04 0.04 95 1016.7
20260831030521 75 0 0.0 0.0 0.00 0.04 0.04 95 1016.8
20260831030042 75 0 0.0 0.0 0.00 0.04 0.04 95 1016.8
20260831025525 75 0 0.0 0.0 0.00 0.04 0.04 95 1016.9
20260831025023 75 0 0.0 0.0 0.00 0.04 0.04 94 1016.9
20260831024548 75 0 0.0 0.0 0.00 0.04 0.04 94 1016.9
20260831024024 75 0 0.0 0.0 0.00 0.04 0.04 94 1017.0
20260831023522 75 0 0.0 0.0 0.00 0.04 0.04 94 1016.9
20260831023041 76 0 0.0 0.0 0.00 0.04 0.04 94 1016.9
20260831022519 75 0 0.0 0.0 0.00 0.04 0.04 94 1017.0
20260831022018 76 0 0.0 0.0 0.00 0.04 0.04 94 1016.8
20260831021542 76 0 0.0 0.0 0.00 0.04 0.04 94 1016.8
20260831021018 76 0 0.0 0.9 0.00 0.04 0.04 94 1016.9
20260831020520 76 0 0.0 0.9 0.00 0.04 0.04 94 1017.0
20260831020041 76 0 0.0 0.9 0.00 0.04 0.04 93 1017.0
20260831015520 76 0 0.0 0.9 0.00 0.04 0.04 93 1016.9
20260831015021 76 0 0.0 0.0 0.00 0.04 0.04 93 1016.8
20260831014542 76 0 0.0 0.0 0.00 0.04 0.04 93 1016.9
20260831014020 76 0 0.0 2.6 0.00 0.04 0.04 93 1016.8
20260831013525 76 0 0.0 2.6 0.00 0.04 0.04 92 1016.8
20260831013043 76 0 0.0 2.6 0.00 0.04 0.04 92 1016.7
20260831012525 76 269 0.0 0.0 0.00 0.04 0.04 92 1016.7
20260831012023 76 0 0.0 0.0 0.00 0.04 0.04 92 1016.7
20260831011542 76 0 0.0 1.7 0.00 0.04 0.04 92 1016.6
20260831011024 76 0 0.0 2.6 0.00 0.04 0.04 92 1016.8
20260831010526 77 0 0.9 2.6 0.00 0.04 0.04 92 1016.7
20260831010046 77 269 0.9 2.6 0.00 0.04 0.04 92 1016.8
20260831005520 77 269 0.9 2.6 0.00 0.04 0.04 92 1016.7
20260831005023 77 269 1.7 2.6 0.00 0.04 0.04 92 1016.8
20260831004543 77 269 0.9 2.6 0.00 0.04 0.04 91 1016.7
20260831004024 77 259 0.0 2.6 0.00 0.04 0.04 91 1016.6
20260831003526 77 0 0.0 0.9 0.00 0.04 0.04 90 1016.6
20260831003041 78 0 0.0 1.7 0.00 0.04 0.04 89 1016.6
20260831002525 78 0 0.0 1.7 0.00 0.04 0.04 89 1016.4
20260831002025 78 82 0.0 2.6 0.00 0.04 0.04 89 1016.3
20260831001545 78 0 0.0 2.6 0.00 0.04 0.04 88 1016.4
20260831001023 78 32 0.0 2.6 0.00 0.04 0.04 89 1016.2
20260831000523 78 281 0.9 3.5 0.00 0.04 0.04 89 1016.4
20260831000044 78 264 0.9 3.5 0.00 0.04 0.04 88 1016.3
20260830235521 78 246 0.9 4.3 0.00 0.04 0.04 87 1016.3
20260830235029 79 337 0.9 4.3 0.00 0.04 0.04 86 1016.4
20260830234556 79 40 2.6 4.3 0.00 0.04 0.04 87 1016.3
20260830234024 79 92 1.7 3.5 0.00 0.04 0.04 87 1016.3
20260830233528 78 108 0.0 2.6 0.00 0.04 0.04 88 1016.2
20260830233048 78 0 0.0 0.0 0.00 0.04 0.04 89 1016.3
20260830232526 78 0 0.0 0.0 0.00 0.04 0.04 88 1016.3
20260830232025 79 0 0.0 0.0 0.00 0.04 0.04 88 1016.3
20260830231544 79 0 0.0 0.0 0.00 0.04 0.04 88 1016.2
20260830231021 79 0 0.0 0.0 0.00 0.04 0.04 88 1016.2
20260830230519 79 0 0.0 0.0 0.00 0.04 0.04 88 1016.2
20260830230046 80 0 0.0 0.0 0.00 0.04 0.04 87 1016.2
20260830225522 80 0 0.0 1.7 0.00 0.04 0.04 86 1016.3
20260830225024 80 0 0.0 1.7 0.00 0.04 0.04 85 1016.3
20260830224542 80 108 0.0 1.7 0.00 0.04 0.04 85 1016.4
20260830224025 80 119 0.0 2.6 0.00 0.04 0.04 85 1016.4
20260830223524 80 121 0.9 3.5 0.00 0.04 0.04 85 1016.3
20260830223045 80 98 0.9 3.5 0.00 0.04 0.04 84 1016.3
20260830222523 81 88 1.7 3.5 0.00 0.04 0.04 83 1016.1
20260830222025 81 51 1.7 3.5 0.00 0.04 0.04 83 1016.1
20260830221542 81 67 1.7 3.5 0.00 0.04 0.04 83 1016.2
20260830221018 81 113 0.9 4.3 0.00 0.04 0.04 83 1016.2
20260830220520 81 87 1.7 7.0 0.00 0.04 0.04 81 1016.0
20260830220044 81 60 2.6 9.6 0.00 0.04 0.04 81 1015.8
20260830215523 82 105 4.3 10.4 0.00 0.04 0.04 79 1015.8
20260830215028 82 61 6.1 10.4 0.00 0.04 0.04 78 1015.7
20260830214603 82 88 4.3 10.4 0.00 0.04 0.04 78 1015.7
20260830214024 82 100 5.2 10.4 0.00 0.04 0.04 78 1015.8
20260830213523 83 46 4.3 11.3 0.00 0.04 0.04 79 1015.8
20260830213045 83 86 6.1 11.3 0.00 0.04 0.04 79 1015.7
20260830212520 84 104 4.3 9.6 0.00 0.04 0.04 78 1015.6
20260830212020 84 58 3.5 10.4 0.00 0.04 0.04 77 1015.7
20260830211547 85 95 1.7 10.4 0.00 0.04 0.04 78 1015.6
20260830211025 86 82 5.2 10.4 0.00 0.04 0.04 74 1015.4
20260830210525 87 63 6.1 10.4 0.00 0.04 0.04 72 1015.2
20260830210048 87 117 4.3 10.4 0.00 0.04 0.04 73 1015.1
20260830205525 87 111 3.5 10.4 0.00 0.04 0.04 77 1015.1
20260830205021 85 95 4.3 10.4 0.00 0.04 0.04 78 1015.1
20260830204543 86 88 6.1 10.4 0.00 0.04 0.04 77 1015.1
20260830204023 86 127 5.2 10.4 0.00 0.04 0.04 78 1015.1
20260830203519 85 92 6.1 13.0 0.00 0.04 0.04 79 1015.0
20260830203049 85 50 7.0 13.0 0.00 0.04 0.04 79 1014.9
20260830202521 85 45 8.7 15.6 0.00 0.04 0.04 79 1015.0
20260830202020 86 83 7.0 15.6 0.00 0.04 0.04 79 1015.0
20260830201544 85 103 8.7 15.6 0.00 0.04 0.04 80 1015.1
20260830201025 87 134 9.6 15.6 0.00 0.04 0.04 76 1015.4
20260830200524 89 77 6.1 11.3 0.00 0.04 0.04 73 1015.2
20260830200039 89 105 3.5 7.8 0.00 0.04 0.04 76 1015.2
20260830195525 89 136 3.5 8.7 0.01 0.04 0.04 76 1015.2
20260830195023 89 150 5.2 8.7 0.02 0.04 0.04 78 1015.2
20260830194544 88 53 2.6 5.2 0.04 0.04 0.04 73 1015.3
20260830194024 89 115 1.7 5.2 0.04 0.04 0.04 80 1015.4
20260830193519 88 107 0.0 4.3 0.04 0.04 0.04 80 1015.5
20260830193104 88 205 1.7 4.3 0.04 0.04 0.04 78 1015.5
20260830192526 89 163 0.0 4.3 0.04 0.04 0.04 80 1015.6
20260830192024 88 260 1.7 4.3 0.04 0.04 0.04 81 1015.6
20260830191549 88 109 0.9 3.5 0.04 0.04 0.04 81 1015.7
20260830191025 86 132 0.0 3.5 0.04 0.04 0.04 83 1015.7
20260830190521 84 0 0.0 1.7 0.04 0.04 0.04 87 1015.7
20260830190044 83 0 0.0 7.0 0.04 0.04 0.04 91 1015.9
20260830185524 82 309 0.0 8.7 0.03 0.03 0.03 85 1016.0
20260830185018 86 121 4.3 8.7 0.01 0.01 0.01 83 1016.2
20260830184542 87 76 4.3 8.7 0.00 0.00 0.00 75 1016.2
20260830184024 87 121 2.6 8.7 0.00 0.00 0.00 74 1016.2
20260830183526 89 81 4.3 8.7 0.00 0.00 0.00 70 1016.2
20260830183040 90 128 2.6 8.7 0.00 0.00 0.00 69 1016.2
20260830182526 89 131 3.5 6.1 0.00 0.00 0.00 70 1016.3
20260830182024 88 84 2.6 6.1 0.00 0.00 0.00 72 1016.3
20260830181543 90 92 1.7 6.1 0.00 0.00 0.00 69 1016.3
20260830181023 91 113 2.6 7.8 0.00 0.00 0.00 73 1016.4
20260830180521 90 115 2.6 7.8 0.00 0.00 0.00 70 1016.5